Regional Weather Roundup
Issued by NWS

Home | Current Version | Previous Version | Text Only | Print | Product List | Glossary Off
Versions: 1 2 3 4 5 6 7 8 9 10 11 12 13 14 15 16 17 18 19 20 21 22 23 24 25 26 27 28 29 30 31 32 33 34 35 36 37 38 39 40 41 42 43 44 45 46 47 48 49 50

810
ASUS44 KLIX 201901
RWRLA
LOUISIANA WEATHER ROUNDUP
NATIONAL WEATHER SERVICE NEW ORLEANS LA
100 PM CST SAT DEC 20 2014

NOTE: "FAIR" INDICATES FEW OR NO CLOUDS BELOW 12,000 FEET WITH NO
      SIGNIFICANT WEATHER AND/OR OBSTRUCTIONS TO VISIBILITY.
      SKY/WX - SKY CONDITION AND SIGNIFICANT WEATHER.
      TMP - AIR TEMPERATURE.    DP   - DEWPOINT TEMPERATURE.
      RH  - RELATIVE HUMIDITY.  PRES - PRESSURE.
      HX  - HEAT INDEX.         WCI  - WIND CHILL INDEX.

*  THESE STATIONS ARE NOT NWS OR FAA STATIONS AND ARE NOT UNDER
   NWS QUALITY CONTROL.

LAZ040-048-061>063-065-066-069-202000-
SOUTHEAST LOUISIANA

CITY           SKY/WX    TMP DP  RH WIND       PRES   REMARKS
N.O. AUDUBON   NOT AVBL
N.O. INTL ARPT CLOUDY    53  48  83 N14       30.11F
N.O. LAKEFRONT CLOUDY    55  48  77 N13       30.12F
N.O. DOWNTOWN* CLOUDY    54  45  71 N8        30.12F
SLIDELL        CLOUDY    54  47  77 N13       30.11F
BATON ROUGE    CLOUDY    50  46  86 NE10      30.14F
BOOTHVILLE     CLOUDY    55  52  89 NE12      30.09F
BELLE CHASSE   CLOUDY    55  49  80 N9        30.10F
BOGALUSA*        N/A     51  46  82 N8        30.16F
GALLIANO*      CLOUDY    56  52  86 MISG      30.10F
NEW ROADS*     CLOUDY    50  47  89 N8        30.16F
GONZALES*      NOT AVBL
HAMMOND*       NOT AVBL
HOUMA*         CLOUDY    52  50  93 N12       30.11F
PORT FOURCHON* CLOUDY    55  52  88 NE17      30.11F

$$

LAZ041-044-053-054-202000-
SOUTHWEST LOUISIANA

CITY           SKY/WX    TMP DP  RH WIND       PRES   REMARKS
LAKE CHARLES   PTSUNNY   55  49  80 NE10      30.14F
LAFAYETTE      CLOUDY    50  47  89 N14       30.14F
PATTERSON      CLOUDY    52  48  87 N10       30.12F
SALT POINT       N/A     56  50  80 VRB6      30.10F
NEW IBERIA     CLOUDY    52  48  86 N13       30.14F
CHENAULT AIRPK CLOUDY    54  48  82 N9        30.15F

$$

LAZ027-028-202000-
CENTRAL LOUISIANA

CITY           SKY/WX    TMP DP  RH WIND       PRES   REMARKS
FORT POLK      MOSUNNY   53  45  73 VRB6      30.16F
ALEXANDRIA INT CLOUDY    51  44  77 VRB7      30.17F
ALEXANDRIA     MOSUNNY   54  44  69 NE7       30.17F

$$

LAZ001-002-202000-
NORTHWEST LOUISIANA

CITY           SKY/WX    TMP DP  RH WIND       PRES   REMARKS
SHREVEPORT     CLOUDY    46  43  89 CALM      30.22F FOG
BARKSDALE AFB  NOT AVBL
DTN SHREVEPORT CLOUDY    44  41  89 E3        30.23F

$$

LAZ014-016-202000-
NORTHEAST LOUISIANA

CITY           SKY/WX    TMP DP  RH WIND       PRES   REMARKS
MONROE         SUNNY     55  42  61 NE10      30.21F
TALLULAH       SUNNY     56  42  59 N10       30.19F

$$




USA.gov is the U.S. government's official web portal to all federal, state and local government web resources and services.